This demonstration page uses our WeatherBlox Daily Observations layout. Learn more.

Left ArrowRight Arrow

Hourly Observations for May 9, 2017

Temp ( °F °C ) Dew Point ( °F °C ) Humidity (%) Winds ( mph kmh ) Pressure ( in mb ) Visibility ( mi km ) Precip ( " mm )
12:53 am 00:53 Clear 75 23.9 66 18.9 74 74 ESE 10 17 30.04 1017 10 16 0.00 0.00
1:53 am 01:53 Partly Cloudy 75 23.9 65 18.3 71 71 ESE 9 15 30.03 1017 10 16 0.00 0.00
2:28 am 02:28 Cloudy 75 23.9 68 20 79 79 SSE 7 11 30.03 1017 9 14 0.00 0.00
2:44 am 02:44 Cloudy 75 23.9 69 20.6 82 82 SE 6 9 30.03 1017 10 16 0.00 0.00
2:53 am 02:53 Cloudy 75 23.9 68 20 79 79 SE 7 11 30.03 1017 10 16 0.00 0.00
3:53 am 03:53 Cloudy 75 23.9 68 20 79 79 SSE 3 6 30.02 1017 10 16 0.00 0.00
4:53 am 04:53 Cloudy 76 24.4 68 20 77 77 Calm 30.03 1017 10 16 0.00 0.00
5:53 am 05:53 Cloudy 74 23.3 69 20.6 85 85 VRB 6 9 30.04 1017 10 16 0.00 0.00
6:01 am 06:01 Cloudy 75 23.9 69 20.6 82 82 Calm 30.03 1017 10 16 0.00 0.00
6:53 am 06:53 Cloudy 76 24.4 70 21.1 82 82 WNW 8 13 30.06 1018 10 16 0.00 0.00
7:53 am 07:53 Mostly Sunny 78 25.6 69 20.6 74 74 NNW 10 17 30.08 1019 10 16 0.00 0.00
8:53 am 08:53 Sunny 80 26.7 69 20.6 69 69 NW 13 20 30.09 1019 10 16 0.00 0.00
9:53 am 09:53 Mostly Sunny 82 27.8 69 20.6 65 65 NW 15 24 30.09 1019 10 16 0.00 0.00
10:53 am 10:53 Partly Cloudy 83 28.3 69 20.6 63 63 NW 15 24 30.09 1019 10 16 0.00 0.00
11:53 am 11:53 Mostly Sunny 83 28.3 69 20.6 63 63 NNW 18 30 30.07 1018 10 16 0.00 0.00
12:53 pm 12:53 Sunny 84 28.9 69 20.6 61 61 NW 17 28 30.06 1018 10 16 0.00 0.00
1:53 pm 13:53 Partly Cloudy 83 28.3 67 19.4 59 59 NW 16 26 30.03 1017 10 16 0.00 0.00
2:53 pm 14:53 Partly Cloudy 84 28.9 69 20.6 61 61 NW 12 19 30.01 1016 10 16 0.00 0.00
3:53 pm 15:53 Partly Cloudy 84 28.9 68 20 59 59 WNW 9 15 29.99 1016 10 16 0.00 0.00
4:53 pm 16:53 Cloudy 82 27.8 67 19.4 60 60 WSW 7 11 29.99 1016 10 16 0.00 0.00
5:53 pm 17:53 Partly Cloudy 82 27.8 67 19.4 60 60 SSE 12 19 30.00 1016 10 16 0.00 0.00
6:53 pm 18:53 Partly Cloudy 81 27.2 67 19.4 62 62 SSE 12 19 30.02 1017 10 16 0.00 0.00
7:53 pm 19:53 Partly Cloudy 79 26.1 69 20.6 72 72 SE 3 6 30.04 1017 10 16 0.00 0.00
8:53 pm 20:53 Clear 79 26.1 69 20.6 72 72 Calm 30.06 1018 10 16 0.00 0.00
9:53 pm 21:53 Partly Cloudy 79 26.1 70 21.1 74 74 S 5 7 30.07 1018 10 16 0.00 0.00
10:03 pm 22:03 Mostly Cloudy 78 25.6 70 21.1 76 76 SSE 5 7 30.06 1018 10 16 0.00 0.00
10:29 pm 22:29 Mostly Cloudy 78 25.6 70 21.1 76 76 SSE 3 6 30.06 1018 10 16 0.00 0.00
10:53 pm 22:53 Mostly Cloudy 78 25.6 71 21.7 79 79 SSW 9 15 30.06 1018 10 16 0.00 0.00
11:35 pm 23:35 Mostly Cloudy 77 25 68 20 74 74 ESE 5 7 30.06 1018 10 16 0.00 0.00
11:53 pm 23:53 Cloudy 77 25 69 20.6 77 77 SE 5 7 30.05 1018 10 16 0.00 0.00

Powered by AerisWeather